Regional Weather Roundup
Issued by NWS

Home | Current Version | Previous Version | Graphics & Text | Print | Product List | Glossary On
Versions: 1 2 3 4 5 6 7 8 9 10 11 12 13 14 15 16 17 18 19 20 21 22 23 24 25 26 27 28 29 30 31 32 33 34 35 36 37 38 39 40 41 42 43 44 45 46 47 48 49 50
000
ASUS45 KTFX 020404
RWRMT
MONTANA HOURLY WEATHER ROUNDUP
NATIONAL WEATHER SERVICE GREAT FALLS MT
1004 PM MDT WED OCT 1 2014

NOTE: "FAIR" INDICATES FEW OR NO CLOUDS BELOW 12000 FEET WITH NO
SIGNIFICANT WEATHER AND/OR OBSTRUCTIONS TO VISIBILITY.

* THESE STATIONS ARE NOT UNDER NWS QUALITY CONTROL. THEY DO NOT
   REPORT WEATHER SUCH AS PRECIPITATION OR FOG.

MTZ001>007-043-020500-
WEST OF THE DIVIDE
CITY           SKY/WX    TMP DP  RH WIND       PRES   REMARKS
KALISPELL      CLOUDY    52  34  50 S9        30.00F
MISSOULA       MOCLDY    50  36  59 E5        30.10S
BUTTE          PTCLDY    37  27  67 CALM      30.09S
MULLAN PASS    CLOUDY    36  34  92 VRB6      30.08S WCI  31
* ESSEX        N/A       44  38  80 S2         N/A
* LINCOLN      N/A       45  28  51 SW6G13     N/A
* LOOKOUT PASS N/A       43  35  73 E2G8       N/A
* POLSON       N/A       47  35  63 S2G8       N/A
* RONAN APT    CLOUDY    48  37  66 N/A        N/A
* SEELEY LAKE  N/A       46  30  54 NW5G10     N/A
* THOMP F APT  PTCLDY    37  23  57 N5G10      N/A   WCI  33
* YAAK HILL    N/A       51  32  48 SE2G8      N/A
$$

MTZ008-052>055-020500-
SOUTHWEST MONTANA
CITY           SKY/WX    TMP DP  RH WIND       PRES   REMARKS
BOZEMAN        CLEAR     45  27  49 W12       30.06R
DILLON         PTCLDY    39  27  62 S10       30.10R WCI  32
W YELLOWSTONE  CLEAR     32  27  82 SW8       30.14R WCI  25
* THREE FORKS  CLEAR     48  48 100 SW8        N/A
* BOULDER HILL N/A       40  19  43 SE4        N/A
* MONIDA PASS  N/A       35  23  62 W2         N/A
* RAYNOLDS PAS N/A       32  17  54 SE5        N/A   WCI  27
* WHITEHALL    N/A       44  23  43 NW6G13     N/A
* WISE RIVER   N/A       38  25  60 W7G13      N/A   WCI  33
$$

MTZ009>010-012-014-046-048-049-054-020500-
EAST SLOPES AND CENTRAL MONTANA
CITY           SKY/WX    TMP DP  RH WIND       PRES   REMARKS
CUT BANK       CLEAR     46  30  54 W18G25    29.89R
GREAT FALLS    PTCLDY    45  30  56 SW13      29.92R
HELENA         MOCLDY    48  28  46 W12G20    30.04R
MALMSTROM AFB  PTCLDY    46  32  58 SW15      29.94R
* CONRAD       PTCLDY    43  28  56 SW5        N/A
* DEARBORN     N/A       52  27  38 S14G33     N/A
* EAST GLACIER N/A       44  28  53 SW19G30    N/A
* MONARCH      N/A       41  18  39 SW14G20    N/A
* PENDROY      N/A       44  22  42 W11G20     N/A
* SAINT MARY   N/A       45  30  56 S10G30     N/A
* SWEET GRASS  N/A       47  28  48 W19G27     N/A
$$

MTZ011-013-016-021-035-040-045-047-050-051-020500-
NORTH CENTRAL MONTANA
CITY           SKY/WX    TMP DP  RH WIND       PRES   REMARKS
HAVRE          CLEAR     50  30  46 W20       29.84R
LEWISTOWN      CLEAR     45  30  56 SW17      29.94S
* CHESTER      N/A       47  29  50 SW7        N/A
* DENTON       N/A       40  29  65 SW8        N/A   WCI  35
* JUDITH GAP   N/A       42  23  47 N4         N/A
* LOMA         N/A       48  31  52 SW11       N/A
$$

MTZ017>020-022>027-061-062-020500-
NORTHEAST MONTANA
CITY           SKY/WX    TMP DP  RH WIND       PRES   REMARKS
GLASGOW        CLEAR     45  34  65 S6        29.85S
GLENDIVE       CLEAR     43  39  86 W8        29.92R
JORDAN         CLEAR     43  36  76 SW5       29.90S
SIDNEY         PTCLDY    48  43  83 W3        29.89S
WOLF POINT     CLEAR     39  36  89 SW5       29.87S WCI  35
* BEAVER HILL  N/A       46  40  80 SW9        N/A
* CIRCLE       N/A       43  39  86 N/A        N/A
* LINDSAY DVD  N/A       44  38  80 W6         N/A
* NAVAJO       N/A       43  36  76 W9         N/A
$$

MTZ028>042-056>058-020500-
SOUTHCENTRAL AND SOUTHEAST MONTANA
CITY           SKY/WX    TMP DP  RH WIND       PRES   REMARKS
BAKER          CLEAR     41  37  86 W5        29.94R
BILLINGS       CLEAR     48  36  63 SW9       29.96F
LIVINGSTON     PTCLDY    48  27  44 W21       30.01R
MILES CITY     CLEAR     45  30  56 NW6       29.94R
* LAUREL APT   CLEAR     41  30  65 N/A        N/A
* ROUNDUP APT  CLEAR     46  34  63 N/A        N/A
* ALZADA       N/A       42  38  86 W4         N/A
* HYSHAM       N/A       50  26  39 SE1        N/A
* LAME DEER    N/A       43  28  56 SW4        N/A
* REED POINT   N/A       43  28  56 N/A        N/A
* ROSCOE HILL  N/A       43  17  35 E3         N/A
$$

REGIONAL REPORTS...DAKOTAS
CITY           SKY/WX    TMP DP  RH WIND       PRES   REMARKS
WILLISTON      PTCLDY    48  43  83 W7        29.85S
DICKINSON      PTCLDY    45  41  86 W6        29.88S
BEACH          N/A       45  45 100 W8        29.92R
CROSBY         CLEAR     46  46 100 SW9       29.83R
TIOGA          FAIR      45  45 100 W8        29.86S
WATFORD CITY   CLEAR     45  43  93 SW8       29.85R
BISMARCK       CLOUDY    55  46  72 NW7       29.85S
GRAND FORKS    CLOUDY    59  52  78 W8        29.74R
FARGO          CLOUDY    61  52  72 W9        29.78R
BUFFALO SD     MOCLDY    46  37  71 W6        29.89R
RAPID CITY     CLOUDY    50  43  77 W3        29.98R
$$

REGIONAL REPORTS...WYOMING/IDAHO/WASHINGTON
CITY           SKY/WX    TMP DP  RH WIND       PRES   REMARKS
GILLETTE       CLEAR     43  37  79 W9        30.01S
SHERIDAN       PTCLDY    36  30  79 S6        30.01S WCI  31
CODY           PTCLDY    43  36  76 S9        30.04S
YELLOWSTONE LA PTCLDY    28  27  96 CALM      30.18R
SALMON         CLEAR     41  30  65 CALM      30.12R
MULLAN PASS    CLOUDY    36  34  92 VRB6      30.08S WCI  31
SAND POINT     CLOUDY    54  37  53 S5        30.00F
SPOKANE        CLOUDY    55  37  51 S12       30.03S

$$



USA.gov is the U.S. government's official web portal to all federal, state and local government web resources and services.